User: anonymous   Login
Location: Altenst�hlen
(53.5567°N, 8.9425°E)
Time: 02:21:36
(UTC+00:00)
Language:

STARLINK-32 - Orbit

View from above orbital plane
View from above orbital plane
View from above satellite
View from above satellite

Ground track
Ground track

The orbit data is extracted from the following two-line orbital elements,

1 44254U 19029V   19346.91667824  .00480405  00000-0  26114-1 0  9992
2 44254  52.9990 341.0413 0001221 121.8988 209.2574 15.12025892 30663
Epoch (UTC): 12 December 2019 22:00:01
Eccentricity: 0.0001221
inclination: 52.9990°
perigee height: 529 km
apogee height: 531 km
right ascension of ascending node: 341.0413°
argument of perigee: 121.8988°
revolutions per day: 15.12025892
mean anomaly at epoch: 209.2574°
orbit number at epoch: 3066

The dashed part of the orbit path shows where the satellite is in the earth's shadow,  

DLR